www.pogodaiklimat.ru

Архив погоды в Оймяконе (Якутия, Россия)

Время
(UTC), дата
06 21.05
09 21.05
12 21.05
15 21.05
18 21.05
21 21.05
00 22.05
03 22.05
06 22.05
09 22.05
12 22.05
15 22.05
18 22.05
21 22.05
00 23.05
03 23.05
06 23.05
09 23.05
12 23.05
15 23.05
18 23.05
21 23.05
00 24.05
03 24.05
06 24.05
09 24.05
12 24.05
15 24.05
18 24.05
21 24.05
00 25.05
03 25.05
06 25.05
09 25.05
12 25.05
15 25.05
18 25.05
21 25.05
00 26.05
03 26.05
06 26.05
09 26.05
12 26.05
15 26.05
18 26.05
21 26.05
00 27.05
03 27.05
06 27.05
09 27.05
12 27.05
15 27.05
18 27.05
21 27.05
00 28.05
03 28.05
Ветер
(напр.,м/с)
Видим. Явления Облачность Т
(С)
Тd
(С)
f
(%)
Тe
(С)
Тes
(С)
Комфортность P
(гПа)
Po
(гПа)
Тmin
(С)
Tmax
(С)
R
(мм)
R24
(мм)
S
(см)
В 2 50 км 9/9 1000 м
[Cb cap]
+7.2 -5.0 42 +6 +6 прохладно 1009.9 923.4
В 2 50 км 9/9 1000 м
[Cb cap]
+6.9 -3.8 46 +5 +6 по сезону 1010.3 923.7 +8.2
ЮВ 1 50 км 8/8 1000 м
[Cb cap]
+2.8 -6.1 52 +2 +2 по сезону 1012.2 924.3
штиль 0 50 км 4/4 1500 м
[Sc]
-2.7 -6.6 74 -4 -4 прохладно 1014.4 924.5
штиль 0 50 км 8/8 1000 м
[Cb cap]
-4.5 -6.5 86 -6 -6 по сезону 1015.0 924.5
ЮЗ 1 50 км 10/8 1000 м
[Cb cap Ac trans Ci fib]
+1.3 -3.2 72 -0 0 по сезону 1014.6 925.3 -5.8 0.0
В 2 50 км осадки на расстоянии 9/4 1000 м
[Cb cap Ci fib]
+6.2 -6.7 39 +5 +9 по сезону 1012.1 925.1
ЮВ 1 50 км осадки на расстоянии 8/8 1000 м
[Cb cap]
+8.5 -4.1 41 +8 +11 по сезону 1010.5 924.4
В 4
{10}
50 км осадки на расстоянии 9/9 1000 м
[Cb cap]
+8.2 -1.4 51 +5 +6 прохладно 1010.2 924.1
ЮВ 4 50 км осадки на расстоянии 9/5 1000 м
[Cb cap Ac trans]
+8.9 -1.9 47 +6 +7 по сезону 1009.9 923.9 +9.4
Ю 2 50 км 9/4 1000 м
[Sc diur, vesp Ac trans Ci fib]
+5.1 -4.6 49 +3 +3 по сезону 1011.4 924.1
СВ 1 50 км 9/3 1000 м
[Sc Ac trans Ci fib]
+0.8 -4.9 66 -1 -1 по сезону 1012.9 924.3
СВ 3 50 км 10/3 1000 м
[Sc Ac trans Cs]
+1.5 -2.6 74 -3 -3 по сезону 1012.5 924.1
В 3 50 км 10/1 1000 м
[Sc As trans]
+2.9 -3.6 62 -1 0 по сезону 1011.1 923.3 -0.6
СВ 2 10 км слаб. снег 10/3 1000 м
[Sc As op]
+3.1 -0.4 78 0 +2 холодно 1009.9 922.3
В 2 20 км слаб. ливневой дождь {снег} 10/8 300 м
[Cb cap Ac As Cs]
+3.8 +0.7 80 +1 +2 холодно 1008.3 920.9
ЮЗ 1 50 км в посл. час ливневой дождь {снег} 10/6 600 м
[Cb cap Ac trans Ci fib]
+5.3 +1.0 74 +4 +6 холодно 1006.3 919.6
С 1
{14}
50 км в посл. час ливневой снег 10/8 600 м
[Cb cap As trans]
+2.4 +1.6 94 +1 +1 холодно 1007.3 919.6 +5.5 5
ЮЗ 1 20 км слаб. ливневой дождь 10/8 600 м
[Cb cap Ac As]
+1.3 +1.0 98 -1 -1 прохладно 1008.3 920.3
штиль 0 50 км слаб. ливневой дождь 10/8 1000 м
[Cb cap Ac As]
+0.5 +0.2 98 -1 -1 по сезону 1009.7 921.2
З 1 н/о н/о +1.2 +0.3 94 1010.8 922.5
З 2 50 км {ливн. дождь} 10/4 1000 м
[Sc diur, vesp Ac trans Ci fib]
+3.7 +0.8 81 +1 +2 по сезону 1011.1 923.5 +0.1 1
СЗ 2
{10}
50 км в посл. час ливневой дождь 9/8 1000 м
[Cb cap Ci fib]
+6.6 +0.8 66 +5 +6 по сезону 1010.4 923.8
СВ 4 20 км в посл. час гроза {ливн. дождь} [макс. диам. градин 3 мм] 9/9 1000 м
[Cb cap]
+6.0 +2.6 79 +2 +3 холодно 1010.8 924.0
С 1 50 км в посл. час ливневой дождь {гроза} 9/6 1000 м
[Cb cap Ci ing]
+7.1 +1.9 69 +6 +9 прохладно 1010.1 923.6
Ю 2 50 км осадки на расстоянии 6/5 1000 м
[Cb cap Ci ing]
+9.3 +0.4 54 +8 +9 по сезону 1008.4 922.7 +10.4 2
В 2
{10}
50 км {ливн. дождь} 3/3 1000 м
[Sc diur, vesp]
+5.7 -1.6 59 +4 +4 по сезону 1008.8 922.1
В 1 50 км ясно -1.9 -4.2 84 -4 -4 прохладно 1010.5 921.2
В 2 50 км ясно -0.4 -3.8 78 -4 -4 по сезону 1008.6 919.9
ЮВ 1 50 км 3/0
[Ci fib]
+4.9 -2.4 59 +4 +8 по сезону 1005.6 918.8 -2.7 0.0
Ю 5 50 км 8/1 1000 м
[Cu hum Ci fib]
+9.8 -4.7 36 +7 +11 по сезону 1001.7 916.7
ЮВ 6
{10}
50 км 5/3 1000 м
[Cu hum Ac trans Ci fib]
+11.8 -1.7 39 +9 +12 по сезону 998.2 914.1
ЮЗ 4 50 км 9/5 1000 м
[Cb cap Ac trans Ci fib]
+13.1 -1.7 36 +12 +13 по сезону 996.3 912.6
ЮЗ 3 50 км 9/6 1000 м
[Cb cap Ac trans Ci fib]
+11.5 -3.0 36 +10 +11 по сезону 996.8 912.6 +14.6
Ю 2 50 км {ливн. дождь} 8/8 1000 м
[Cb cap]
+7.7 -2.7 48 +6 +6 по сезону 999.3 913.9
С 1 50 км 6/3 1000 м
[Cb cap Ci fib]
+2.5 -3.1 67 +1 +1 по сезону 1001.3 914.2
СВ 2 50 км 8/3 1000 м
[Sc Ci fib]
+0.6 -3.4 75 -3 -3 по сезону 1002.5 914.6
В 1 50 км 9/3 1000 м
[Sc Ci]
+6.9 -2.0 53 +6 +9 тепло 1000.7 914.9 -0.4 0.0
ЮВ 4 50 км осадки на расстоянии 10/8 1000 м
[Cb cap Ci fib]
+8.5 -3.0 44 +6 +7 по сезону 1000.3 915.0
В 4 50 км осадки на расстоянии 10/8 1000 м
[Cb cap Ac und]
+9.3 -1.2 48 +7 +7 по сезону 999.7 914.7
В 3 50 км осадки на расстоянии {ливн. дождь} 9/8 1380 м
[Cb cap Ac trans]
+9.1 -0.9 50 +7 +8 по сезону 999.6 914.6
штиль 0 50 км в посл. час ливневой дождь 9/4 1000 м
[Cb cap Ac lent Ci fib]
+7.1 +1.5 68 +7 +7 по сезону 1001.4 915.7 +10.1 0.0
СВ 1 50 км слаб. ливневой дождь 10/5 1000 м
[Cb cap As trans]
+5.5 +1.2 74 +5 +5 по сезону 1003.8 917.2
СЗ 1 20 км слаб. дождь {ливн. дождь} 10/6 1000 м
[Sc As op]
+3.4 +2.4 93 +2 +2 по сезону 1005.0 917.8
З 2 50 км слаб. дождь {ливн. дождь} 10/5 300 м
[Sc Ac As]
+2.5 +2.0 96 -1 -1 по сезону 1005.6 918.3
З 2 50 км 10/3 300 м
[St Ac trans Cs]
+5.7 +3.0 83 +3 +4 по сезону 1005.9 919.4 +1.8 0.9
СВ 2 50 км 10/6 1000 м
[Cb cap Ac As Cs]
+8.9 +2.3 63 +7 +9 по сезону 1006.0 920.4
ЮЗ 2 20 км слаб. ливневой дождь 10/8 1000 м
[Cb cap Ac trans Ci fib]
+8.0 +2.3 67 +6 +8 по сезону 1007.0 921.1
ЮЗ 2 50 км в посл. час ливневой дождь 10/8 1000 м
[Cb cap Ac cuf Ci fib]
+8.6 +1.9 63 +7 +8 по сезону 1007.7 921.9
ЮЗ 1 50 км в посл. час ливневой дождь 9/8 1000 м
[Cb cap Ac cuf Ci fib]
+8.8 +2.3 64 +8 +9 по сезону 1009.7 923.7 +12.1 0.9
штиль 0 50 км {ливн. дождь} 10/9 1000 м
[Cb cap Ci fib]
+6.1 +3.5 83 +5 +5 по сезону 1012.5 925.5
штиль 0 50 км 8/5 1000 м
[Sc Ci fib]
+3.7 +2.7 93 +3 +3 по сезону 1014.1 926.3
штиль 0 50 км 9/9 1000 м
[Sc]
+2.1 +1.1 93 +1 +1 по сезону 1015.8 927.4
ЮВ 2 50 км 10/8 1500 м
[Sc Ac und]
+4.5 +2.8 89 +2 +2 по сезону 1015.9 928.3 +1.2 0.3
Ю 2 50 км 10/4 1000 м
[Cu Sc Ac und]
+8.7 +3.6 70 +7 +9 по сезону 1014.5 928.2
З 6-10
{11}
50 км слаб. ливневой дождь 9/9 1000 м
[Cb cap Ac trans]
+8.5 +1.5 61 +5 +5 по сезону 1014.5 928.2
Местоположение метеостанции Оймякон (Якутия, Россия): широта 63.25 долгота 143.10 высота над уровнем моря 740 м.
В архиве по умолчанию представлена погода в Оймяконе за последнюю неделю. Архивные данные за месяц целиком и за предыдущие месяцы, начиная с января 2011 года, Вы можете получить, выбрав интересующий диапазон дат из раскрывающегося списка и нажав кнопку "Найти!".
*Определитесь, кто Вы:
Внимание! Время в таблицах - всемирное. Для получения местного времени необходимо прибавить поправку, которая равна 10 ч.
Смотрите также архив погоды в соседних городах и на ближайших метеорологических станциях:
Партнеры нашего сайта:      
Пояснения к столбцам:
  • Ветер - указаны скорость ветра в м/с - средняя за 10 мин, порывы в срок и между сроками (в фигурных скобках) и направление, откуда дует ветер: С - северный,
  • СВ - северо-восточный, В - восточный, ЮВ - юго-восточный, Ю - южный, ЮЗ - юго-западный, З - западный, СЗ - северо-западный.
  • Видимость - горизонтальная дальность видимости в метрах или километрах. При видимости от 1 до 10 км при отсутствии осадков обычно наблюдается дымка, при ухудшении видимости до 1 км и менее - туман. В сухую погоду видимость может ухудшаться дымом, пылью или мглою.
  • Явления - указаны атмосферные явления, наблюдавшиеся в срок или в последний час перед сроком; фигурными скобками обозначены явления, наблюдавшиеся между сроками (за 1-3 часа до срока); квадратными скобками обозначены град или гололедные отложения с указанием их диаметра в мм.
  • Облачность - указаны через наклонную черту общая и нижняя облачность в баллах и высота нижней границы облаков в метрах; квадратными скобками обозначены формы облаков: Ci - перистые, Cs - перисто-слоистые, Cc - перисто-кучевые, Ac - высококучевые, As - высокослоистые, Sc - слоисто-кучевые, Ns - слоисто-дождевые, Cu - кучевые, Cb - кучево-дождевые. Подробнее классификацию облаков см. в Атласе облаков (PDF).
  • T - Температура воздуха - температура, измеренная на высоте 2 м над землей.
  • Td - Температура точки росы - температура, при понижении до которой содержащийся в воздухе водяной пар достигнет насыщения.
  • f - Относительная влажность воздуха - влажноcть воздуха, измеренная на высоте 2 м над землей.
  • Te - Эффективная температура - температура, которую ощущает одетый по сезону человек в тени. Характеристика душности погоды. При расчете учитывается влияние влажности воздуха и скорости ветра на теплоощущения человека.
  • Tes - Эффективная температура на солнце - температура, которую ощущает человек, с поправкой на солнечный нагрев. Характеристика знойности погоды. Зависит от высоты солнца над горизонтом, облачности и скорости ветра. Ночью, в пасмурную погоду, а также при ветре 12 м/с и более поправка равна нулю.
  • P - Атмосферное давление - приведенное к уровню моря атмосферное давление.
  • Po - Атмосферное давление - измеренное на уровне метеостанции атмосферное давление.
  • Tmin - Минимальная температура - минимум температуры воздуха на высоте 2 м над землей.
  • Tmax - Максимальная температура - максимум температуры воздуха на высоте 2 м над землей.
  • R - Количество осадков - Количество выпавших осадков за период времени, мм. При наведении курсора мыши на число - период времени, за который выпало указанное количество осадков.
  • R24 - Количество осадков - Количество выпавших осадков за 24 часа, мм.
  • S - Снежный покров - Высота снежного покрова, см. При наведении курсора мыши на число - состояние снежного покрова и степень покрытия местности в баллах.